Location: Cajon Junction
(34.3117°N, 117.4748°W)
Time: 06:49:11
(UTC+00:00)

COSMO-SKYMED 1 - Visible Passes

Search period start: 13 July 2024 00:00
Search period end: 23 July 2024 00:00
Orbit: 621 x 623 km, 97.9° (Epoch: 12 July)

Date Brightness Start Highest point End Pass type
(mag) Time Alt. Az. Time Alt. Az. Time Alt. Az.
15 Jul 6.2 11:55:20 10° E 11:56:45 11° ENE 11:58:11 10° NE visible
16 Jul 5.7 12:11:38 10° ESE 12:14:35 18° ENE 12:17:33 10° NNE visible
21 Jul 5.8 12:06:03 10° ESE 12:08:37 16° ENE 12:11:12 10° NNE visible
22 Jul 5.4 12:22:58 10° SE 12:26:29 24° ENE 12:29:59 10° NNE visible
